This is the latest recevied weather packets stored in our database for station/object KA5FVT. If no packets are shown the sender has not sent any weather packets the latest 10 day(s).
| Time | Temp. | Humidity | Pressure | Rain* | Wind** | Luminosity | Snow |
|---|---|---|---|---|---|---|---|
| 1777674866 | 16.11° C | 96% | 1009.6 hPa | 0.51 mm | - | - | - |
| 1777673967 | 16.11° C | 96% | 1009.9 hPa | 0.76 mm | - | - | - |
| 1777672766 | 16.11° C | 96% | 1010.8 hPa | 1.02 mm | - | - | - |
| 1777671566 | 16.11° C | 96% | 1011 hPa | 1.27 mm | - | - | - |
| 1777669766 | 16.67° C | 96% | 1009.1 hPa | 2.03 mm | - | - | - |
| 1777669169 | 16.67° C | 96% | 1009.7 hPa | 2.54 mm | - | - | - |
| 1777666166 | 17.22° C | 96% | 1009.2 hPa | 1.02 mm | - | - | - |
| 1777665267 | 17.22° C | 97% | 1009 hPa | 1.02 mm | - | - | - |
| 1777663167 | 17.22° C | 97% | 1008.9 hPa | 2.54 mm | - | - | - |
| 1777660772 | 16.67° C | 96% | 1009.6 hPa | 2.03 mm | - | - | - |
| 1777660470 | 16.67° C | 96% | 1009.6 hPa | 2.03 mm | - | - | - |
| 1777659866 | 16.67° C | 96% | 1007.8 hPa | 1.78 mm | - | - | - |
| 1777658667 | 16.67° C | 96% | 1008.4 hPa | 1.02 mm | - | - | - |
| 1777657166 | 17.22° C | 96% | 1010.1 hPa | 1.02 mm | - | - | - |
| 1777656269 | 17.22° C | 96% | 1010.1 hPa | 2.03 mm | - | - | - |
| 1777655966 | 17.22° C | 96% | 1010.1 hPa | 2.79 mm | - | - | - |
| 1777655067 | 17.22° C | 96% | 1010.8 hPa | 4.32 mm | - | - | - |
| 1777653866 | 17.22° C | 96% | 1010.9 hPa | 4.32 mm | - | - | - |
| 1777652966 | 17.22° C | 96% | 1012.2 hPa | 4.06 mm | - | - | - |
| 1777651766 | 17.22° C | 96% | 1012.7 hPa | 1.27 mm | - | - | - |
| 1777650869 | 17.22° C | 96% | 1012 hPa | 1.52 mm | - | - | - |
| 1777649667 | 17.22° C | 96% | 1011.1 hPa | 4.06 mm | - | - | - |
| 1777649366 | 17.22° C | 96% | 1011.2 hPa | 4.57 mm | - | - | - |
| 1777649067 | 17.22° C | 96% | 1011.3 hPa | 4.57 mm | - | - | - |
| 1777646966 | 16.67° C | 96% | 1011.5 hPa | 4.57 mm | - | - | - |
* Rain latest hour (hover to see other rain measurements)
** Current wind speed in m/s (hover to see current wind gust speed)